Year,Month,Day,Hour,Minute,Value (Times are PST for temperature in C)
2013,07,15,00,03,14.70
2013,07,15,00,04,14.60
2013,07,15,00,06,14.60
2013,07,15,00,07,14.60
2013,07,15,00,09,14.60
2013,07,15,00,10,14.60
2013,07,15,00,11,14.60
2013,07,15,00,12,14.60
2013,07,15,00,14,14.60
2013,07,15,00,15,14.60
2013,07,15,00,16,14.60
2013,07,15,00,17,14.60
2013,07,15,00,18,14.60
2013,07,15,00,19,14.60
2013,07,15,00,21,14.60
2013,07,15,00,22,14.60
2013,07,15,00,23,14.60
2013,07,15,00,24,14.50
2013,07,15,00,25,14.50
2013,07,15,00,27,14.50
2013,07,15,00,28,14.40
2013,07,15,00,29,14.40
2013,07,15,00,30,14.40
2013,07,15,00,31,14.40
2013,07,15,00,32,14.40
2013,07,15,00,33,14.40
2013,07,15,00,34,14.40
2013,07,15,00,36,14.40
2013,07,15,00,37,14.40
2013,07,15,00,38,14.40
2013,07,15,00,39,14.40
2013,07,15,00,40,14.40
2013,07,15,00,42,14.40
2013,07,15,00,43,14.40
2013,07,15,00,44,14.30
2013,07,15,00,45,14.30
2013,07,15,00,47,14.30
2013,07,15,00,48,14.30
2013,07,15,00,49,14.30
2013,07,15,00,50,14.30
2013,07,15,00,51,14.30
2013,07,15,00,53,14.30
2013,07,15,00,54,14.30
2013,07,15,00,55,14.20
2013,07,15,00,56,14.20
2013,07,15,00,57,14.20
2013,07,15,00,58,14.20
2013,07,15,00,59,14.20
2013,07,15,01,00,14.20
2013,07,15,01,02,14.20
2013,07,15,01,03,14.20
2013,07,15,01,05,14.20
2013,07,15,01,08,14.20
2013,07,15,01,09,14.20
2013,07,15,01,10,14.20
2013,07,15,01,12,14.20
2013,07,15,01,13,14.10
2013,07,15,01,14,14.10
2013,07,15,01,15,14.10
2013,07,15,01,16,14.10
2013,07,15,01,17,14.10
2013,07,15,01,18,14.10
2013,07,15,01,19,14.10
2013,07,15,01,21,14.10
2013,07,15,01,22,14.10
2013,07,15,01,23,14.10
2013,07,15,01,25,14.10
2013,07,15,01,26,14.10
2013,07,15,01,27,14.20
2013,07,15,01,28,14.20
2013,07,15,01,30,14.20
2013,07,15,01,31,14.20
2013,07,15,01,32,14.20
2013,07,15,01,34,14.20
2013,07,15,01,35,14.20
2013,07,15,01,36,14.20
2013,07,15,01,37,14.20
2013,07,15,01,39,14.20
2013,07,15,01,40,14.20
2013,07,15,01,41,14.20
2013,07,15,01,42,14.20
2013,07,15,01,44,14.20
2013,07,15,01,45,14.20
2013,07,15,01,46,14.20
2013,07,15,01,47,14.20
2013,07,15,01,48,14.20
2013,07,15,01,49,14.20
2013,07,15,01,50,14.20
2013,07,15,01,51,14.20
2013,07,15,01,53,14.10
2013,07,15,01,54,14.10
2013,07,15,01,55,14.10
2013,07,15,01,56,14.10
2013,07,15,01,58,14.10
2013,07,15,01,59,14.10
2013,07,15,02,00,14.10
2013,07,15,02,01,14.10
2013,07,15,02,03,14.10
2013,07,15,02,04,14.10
2013,07,15,02,07,14.10
2013,07,15,02,08,14.10
2013,07,15,02,09,14.10
2013,07,15,02,10,14.10
2013,07,15,02,11,14.10
2013,07,15,02,12,14.20
2013,07,15,02,13,14.20
2013,07,15,02,14,14.10
2013,07,15,02,16,14.10
2013,07,15,02,17,14.10
2013,07,15,02,18,14.10
2013,07,15,02,19,14.10
2013,07,15,02,21,14.20
2013,07,15,02,22,14.10
2013,07,15,02,23,14.20
2013,07,15,02,25,14.10
2013,07,15,02,26,14.10
2013,07,15,02,27,14.10
2013,07,15,02,28,14.10
2013,07,15,02,30,14.10
2013,07,15,02,31,14.10
2013,07,15,02,32,14.10
2013,07,15,02,33,14.10
2013,07,15,02,34,14.00
2013,07,15,02,36,14.00
2013,07,15,02,37,14.00
2013,07,15,02,38,14.00
2013,07,15,02,39,14.00
2013,07,15,02,40,14.00
2013,07,15,02,41,13.90
2013,07,15,02,42,13.90
2013,07,15,02,44,13.90
2013,07,15,02,45,13.90
2013,07,15,02,46,13.90
2013,07,15,02,47,13.90
2013,07,15,02,48,13.90
2013,07,15,02,50,13.90
2013,07,15,02,51,13.80
2013,07,15,02,52,13.80
2013,07,15,02,53,13.80
2013,07,15,02,55,13.80
2013,07,15,02,56,13.90
2013,07,15,02,57,13.90
2013,07,15,02,58,14.00
2013,07,15,02,59,14.00
2013,07,15,03,01,14.00
2013,07,15,03,02,14.00
2013,07,15,03,03,14.00
2013,07,15,03,04,13.90
2013,07,15,03,05,13.90
2013,07,15,03,06,13.90
2013,07,15,03,07,13.80
2013,07,15,03,08,13.80
2013,07,15,03,10,13.80
2013,07,15,03,11,13.80
2013,07,15,03,12,13.80
2013,07,15,03,13,13.80
2013,07,15,03,15,13.70
2013,07,15,03,16,13.70
2013,07,15,03,17,13.60
2013,07,15,03,19,13.60
2013,07,15,03,20,13.50
2013,07,15,03,21,13.40
2013,07,15,03,23,13.40
2013,07,15,03,24,13.40
2013,07,15,03,25,13.30
2013,07,15,03,26,13.30
2013,07,15,03,28,13.30
2013,07,15,03,29,13.30
2013,07,15,03,30,13.30
2013,07,15,03,31,13.30
2013,07,15,03,32,13.30
2013,07,15,03,34,13.30
2013,07,15,03,35,13.30
2013,07,15,03,36,13.30
2013,07,15,03,38,13.30
2013,07,15,03,39,13.30
2013,07,15,03,40,13.50
2013,07,15,03,41,13.60
2013,07,15,03,42,13.70
2013,07,15,03,44,13.80
2013,07,15,03,45,13.90
2013,07,15,03,46,14.00
2013,07,15,03,47,14.10
2013,07,15,03,49,14.10
2013,07,15,03,50,14.00
2013,07,15,03,51,13.90
2013,07,15,03,52,13.80
2013,07,15,03,54,13.80
2013,07,15,03,55,13.70
2013,07,15,03,56,13.70
2013,07,15,03,57,13.80
2013,07,15,03,58,13.80
2013,07,15,04,00,13.80
2013,07,15,04,01,13.80
2013,07,15,04,02,13.80
2013,07,15,04,03,13.80
2013,07,15,04,06,13.80
2013,07,15,04,07,13.70
2013,07,15,04,08,13.70
2013,07,15,04,10,13.70
2013,07,15,04,11,13.70
2013,07,15,04,12,13.70
2013,07,15,04,14,13.60
2013,07,15,04,15,13.50
2013,07,15,04,16,13.40
2013,07,15,04,17,13.30
2013,07,15,04,19,13.30
2013,07,15,04,20,13.30
2013,07,15,04,21,13.30
2013,07,15,04,22,13.40
2013,07,15,04,23,13.40
2013,07,15,04,25,13.50
2013,07,15,04,26,13.60
2013,07,15,04,27,13.70
2013,07,15,04,28,13.70
2013,07,15,04,30,13.80
2013,07,15,04,31,13.80
2013,07,15,04,32,13.80
2013,07,15,04,33,13.80
2013,07,15,04,34,13.80
2013,07,15,04,36,13.70
2013,07,15,04,37,13.60
2013,07,15,04,38,13.60
2013,07,15,04,39,13.50
2013,07,15,04,40,13.40
2013,07,15,04,42,13.30
2013,07,15,04,43,13.30
2013,07,15,04,44,13.30
2013,07,15,04,45,13.30
2013,07,15,04,47,13.30
2013,07,15,04,48,13.20
2013,07,15,04,49,13.20
2013,07,15,04,50,13.10
2013,07,15,04,52,13.10
2013,07,15,04,53,13.00
2013,07,15,04,54,12.90
2013,07,15,04,55,12.90
2013,07,15,04,56,12.90
2013,07,15,04,57,12.80
2013,07,15,04,58,12.80
2013,07,15,04,59,12.80
2013,07,15,05,00,12.80
2013,07,15,05,01,12.80
2013,07,15,05,02,12.80
2013,07,15,05,03,12.80
2013,07,15,05,04,12.80
2013,07,15,05,05,12.80
2013,07,15,05,06,12.80
2013,07,15,05,07,12.80
2013,07,15,05,08,12.80
2013,07,15,05,09,12.80
2013,07,15,05,10,12.80
2013,07,15,05,12,12.80
2013,07,15,05,13,12.80
2013,07,15,05,14,12.80
2013,07,15,05,15,12.70
2013,07,15,05,17,12.80
2013,07,15,05,18,12.70
2013,07,15,05,19,12.70
2013,07,15,05,20,12.70
2013,07,15,05,22,12.70
2013,07,15,05,23,12.60
2013,07,15,05,24,12.60
2013,07,15,05,25,12.50
2013,07,15,05,26,12.50
2013,07,15,05,27,12.40
2013,07,15,05,28,12.40
2013,07,15,05,29,12.40
2013,07,15,05,30,12.40
2013,07,15,05,32,12.40
2013,07,15,05,33,12.40
2013,07,15,05,34,12.40
2013,07,15,05,35,12.40
2013,07,15,05,37,12.40
2013,07,15,05,38,12.40
2013,07,15,05,39,12.40
2013,07,15,05,40,12.40
2013,07,15,05,41,12.40
2013,07,15,05,42,12.40
2013,07,15,05,43,12.40
2013,07,15,05,44,12.40
2013,07,15,05,46,12.40
2013,07,15,05,47,12.40
2013,07,15,05,48,12.30
2013,07,15,05,49,12.30
2013,07,15,05,51,12.30
2013,07,15,05,52,12.30
2013,07,15,05,53,12.30
2013,07,15,05,55,12.30
2013,07,15,05,56,12.20
2013,07,15,05,57,12.20
2013,07,15,05,58,12.20
2013,07,15,05,59,12.10
2013,07,15,06,01,12.10
2013,07,15,06,02,12.00
2013,07,15,06,03,12.00
2013,07,15,06,05,12.00
2013,07,15,06,06,12.00
2013,07,15,06,07,12.10
2013,07,15,06,08,12.10
2013,07,15,06,09,12.10
2013,07,15,06,10,12.10
2013,07,15,06,11,12.20
2013,07,15,06,12,12.20
2013,07,15,06,13,12.20
2013,07,15,06,15,12.30
2013,07,15,06,16,12.30
2013,07,15,06,17,12.30
2013,07,15,06,18,12.30
2013,07,15,06,19,12.30
2013,07,15,06,20,12.30
2013,07,15,06,21,12.30
2013,07,15,06,22,12.30
2013,07,15,06,23,12.30
2013,07,15,06,25,12.30
2013,07,15,06,26,12.30
2013,07,15,06,27,12.30
2013,07,15,06,28,12.40
2013,07,15,06,30,12.40
2013,07,15,06,31,12.40
2013,07,15,06,32,12.40
2013,07,15,06,33,12.50
2013,07,15,06,34,12.50
2013,07,15,06,36,12.50
2013,07,15,06,37,12.50
2013,07,15,06,38,12.50
2013,07,15,06,39,12.50
2013,07,15,06,41,12.60
2013,07,15,06,42,12.60
2013,07,15,06,43,12.60
2013,07,15,06,44,12.70
2013,07,15,06,46,12.70
2013,07,15,06,47,12.70
2013,07,15,06,48,12.80
2013,07,15,06,50,12.90
2013,07,15,06,51,12.90
2013,07,15,06,52,13.10
2013,07,15,06,53,13.20
2013,07,15,06,54,13.20
2013,07,15,06,56,13.30
2013,07,15,06,57,13.40
2013,07,15,06,58,13.50
2013,07,15,06,59,13.60
2013,07,15,07,01,13.70
2013,07,15,07,02,13.90
2013,07,15,07,03,14.10
2013,07,15,07,05,14.20
2013,07,15,07,06,14.30
2013,07,15,07,07,14.50
2013,07,15,07,08,14.60
2013,07,15,07,10,14.70
2013,07,15,07,11,14.80
2013,07,15,07,12,14.90
2013,07,15,07,13,15.10
2013,07,15,07,14,15.20
2013,07,15,07,15,15.30
2013,07,15,07,16,15.30
2013,07,15,07,18,15.40
2013,07,15,07,19,15.60
2013,07,15,07,20,15.60
2013,07,15,07,21,15.70
2013,07,15,07,23,15.70
2013,07,15,07,24,15.70
2013,07,15,07,25,15.70
2013,07,15,07,26,15.70
2013,07,15,07,27,15.80
2013,07,15,07,28,15.80
2013,07,15,07,29,15.80
2013,07,15,07,31,15.90
2013,07,15,07,32,15.90
2013,07,15,07,33,15.90
2013,07,15,07,35,15.90
2013,07,15,07,36,15.90
2013,07,15,07,37,15.90
2013,07,15,07,38,15.90
2013,07,15,07,39,15.90
2013,07,15,07,40,16.00
2013,07,15,07,41,15.90
2013,07,15,07,42,16.00
2013,07,15,07,43,16.00
2013,07,15,07,44,16.10
2013,07,15,07,45,16.10
2013,07,15,07,46,16.10
2013,07,15,07,47,16.10
2013,07,15,07,49,16.20
2013,07,15,07,50,16.30
2013,07,15,07,51,16.30
2013,07,15,07,52,16.40
2013,07,15,07,53,16.50
2013,07,15,07,54,16.60
2013,07,15,07,55,16.60
2013,07,15,07,56,16.70
2013,07,15,07,57,16.70
2013,07,15,07,58,16.80
2013,07,15,07,59,16.80
2013,07,15,08,00,16.90
2013,07,15,08,01,16.90
2013,07,15,08,03,16.90
2013,07,15,08,04,17.00
2013,07,15,08,05,17.10
2013,07,15,08,06,17.20
2013,07,15,08,08,17.30
2013,07,15,08,09,17.40
2013,07,15,08,10,17.60
2013,07,15,08,11,17.70
2013,07,15,08,13,17.80
2013,07,15,08,14,17.90
2013,07,15,08,15,17.90
2013,07,15,08,16,18.00
2013,07,15,08,18,18.10
2013,07,15,08,19,18.10
2013,07,15,08,20,18.10
2013,07,15,08,21,18.10
2013,07,15,08,23,18.20
2013,07,15,08,24,18.20
2013,07,15,08,25,18.20
2013,07,15,08,26,18.20
2013,07,15,08,27,18.30
2013,07,15,08,28,18.30
2013,07,15,08,29,18.40
2013,07,15,08,30,18.40
2013,07,15,08,31,18.60
2013,07,15,08,33,18.60
2013,07,15,08,34,18.80
2013,07,15,08,35,18.80
2013,07,15,08,36,18.90
2013,07,15,08,38,18.90
2013,07,15,08,39,19.10
2013,07,15,08,40,19.10
2013,07,15,08,41,19.10
2013,07,15,08,43,19.10
2013,07,15,08,44,19.10
2013,07,15,08,45,19.10
2013,07,15,08,46,19.10
2013,07,15,08,47,19.10
2013,07,15,08,48,19.20
2013,07,15,08,49,19.20
2013,07,15,08,51,19.20
2013,07,15,08,52,19.20
2013,07,15,08,53,19.30
2013,07,15,08,54,19.30
2013,07,15,08,56,19.40
2013,07,15,08,57,19.40
2013,07,15,08,58,19.40
2013,07,15,08,59,19.40
2013,07,15,09,00,19.40
2013,07,15,09,01,19.50
2013,07,15,09,02,19.50
2013,07,15,09,03,19.50
2013,07,15,09,05,19.50
2013,07,15,09,06,19.60
2013,07,15,09,07,19.60
2013,07,15,09,08,19.60
2013,07,15,09,09,19.60
2013,07,15,09,10,19.60
2013,07,15,09,11,19.70
2013,07,15,09,12,19.70
2013,07,15,09,14,19.60
2013,07,15,09,15,19.60
2013,07,15,09,16,19.60
2013,07,15,09,17,19.60
2013,07,15,09,19,19.60
2013,07,15,09,20,19.60
2013,07,15,09,21,19.70
2013,07,15,09,23,19.70
2013,07,15,09,24,19.80
2013,07,15,09,25,19.90
2013,07,15,09,26,20.00
2013,07,15,09,27,20.00
2013,07,15,09,28,20.00
2013,07,15,09,29,20.00
2013,07,15,09,30,19.90
2013,07,15,09,31,19.90
2013,07,15,09,32,19.90
2013,07,15,09,33,19.80
2013,07,15,09,34,19.80
2013,07,15,09,35,19.80
2013,07,15,09,36,19.80
2013,07,15,09,37,19.80
2013,07,15,09,38,19.90
2013,07,15,09,39,19.90
2013,07,15,09,40,19.90
2013,07,15,09,42,20.00
2013,07,15,09,43,20.10
2013,07,15,09,44,20.10
2013,07,15,09,45,20.10
2013,07,15,09,46,20.10
2013,07,15,09,47,20.10
2013,07,15,09,48,20.10
2013,07,15,09,49,20.20
2013,07,15,09,50,20.20
2013,07,15,09,51,20.20
2013,07,15,09,52,20.20
2013,07,15,09,53,20.20
2013,07,15,09,54,20.20
2013,07,15,09,55,20.20
2013,07,15,09,57,20.30
2013,07,15,09,58,20.30
2013,07,15,09,59,20.30
2013,07,15,10,00,20.40
2013,07,15,10,01,20.30
2013,07,15,10,02,20.40
2013,07,15,10,03,20.40
2013,07,15,10,04,20.40
2013,07,15,10,05,20.40
2013,07,15,10,06,20.40
2013,07,15,10,08,20.40
2013,07,15,10,09,20.50
2013,07,15,10,10,20.50
2013,07,15,10,11,20.50
2013,07,15,10,12,20.60
2013,07,15,10,14,20.60
2013,07,15,10,15,20.60
2013,07,15,10,16,20.70
2013,07,15,10,17,20.70
2013,07,15,10,18,20.70
2013,07,15,10,20,20.60
2013,07,15,10,21,20.60
2013,07,15,10,22,20.60
2013,07,15,10,23,20.60
2013,07,15,10,24,20.60
2013,07,15,10,25,20.60
2013,07,15,10,26,20.70
2013,07,15,10,27,20.70
2013,07,15,10,29,20.70
2013,07,15,10,30,20.60
2013,07,15,10,31,20.60
2013,07,15,10,32,20.60
2013,07,15,10,34,20.60
2013,07,15,10,35,20.60
2013,07,15,10,36,20.70
2013,07,15,10,37,20.70
2013,07,15,10,39,20.70
2013,07,15,10,40,20.80
2013,07,15,10,41,20.80
2013,07,15,10,42,20.90
2013,07,15,10,43,20.90
2013,07,15,10,44,21.00
2013,07,15,10,45,21.10
2013,07,15,10,46,21.10
2013,07,15,10,47,21.20
2013,07,15,10,49,21.20
2013,07,15,10,50,21.20
2013,07,15,10,51,21.20
2013,07,15,10,53,21.20
2013,07,15,10,54,21.30
2013,07,15,10,55,21.30
2013,07,15,10,56,21.30
2013,07,15,10,58,21.30
2013,07,15,10,59,21.40
2013,07,15,11,00,21.40
2013,07,15,11,01,21.40
2013,07,15,11,02,21.40
2013,07,15,11,04,21.40
2013,07,15,11,05,21.60
2013,07,15,11,06,21.60
2013,07,15,11,07,21.60
2013,07,15,11,09,21.60
2013,07,15,11,10,21.60
2013,07,15,11,11,21.60
2013,07,15,11,12,21.60
2013,07,15,11,13,21.70
2013,07,15,11,15,21.70
2013,07,15,11,16,21.70
2013,07,15,11,17,21.70
2013,07,15,11,18,21.70
2013,07,15,11,20,21.70
2013,07,15,11,21,21.70
2013,07,15,11,22,21.80
2013,07,15,11,23,21.80
2013,07,15,11,25,21.80
2013,07,15,11,26,21.90
2013,07,15,11,27,21.90
2013,07,15,11,29,21.90
2013,07,15,11,30,21.90
2013,07,15,11,31,21.90
2013,07,15,11,32,21.90
2013,07,15,11,33,22.00
2013,07,15,11,34,22.10
2013,07,15,11,35,22.10
2013,07,15,11,36,22.00
2013,07,15,11,37,22.10
2013,07,15,11,38,22.10
2013,07,15,11,40,22.20
2013,07,15,11,41,22.20
2013,07,15,11,42,22.30
2013,07,15,11,43,22.30
2013,07,15,11,45,22.30
2013,07,15,11,46,22.20
2013,07,15,11,47,22.20
2013,07,15,11,48,22.30
2013,07,15,11,50,22.30
2013,07,15,11,51,22.40
2013,07,15,11,52,22.40
2013,07,15,11,53,22.40
2013,07,15,11,55,22.30
2013,07,15,11,56,22.30
2013,07,15,11,57,22.20
2013,07,15,11,58,22.20
2013,07,15,11,59,22.20
2013,07,15,12,00,22.20
2013,07,15,12,01,22.10
2013,07,15,12,02,22.20
2013,07,15,12,04,22.20
2013,07,15,12,05,22.30
2013,07,15,12,06,22.20
2013,07,15,12,08,22.20
2013,07,15,12,09,22.10
2013,07,15,12,10,22.10
2013,07,15,12,11,22.10
2013,07,15,12,12,22.10
2013,07,15,12,13,22.20
2013,07,15,12,14,22.20
2013,07,15,12,15,22.30
2013,07,15,12,16,22.30
2013,07,15,12,18,22.30
2013,07,15,12,19,22.30
2013,07,15,12,20,22.40
2013,07,15,12,21,22.40
2013,07,15,12,22,22.40
2013,07,15,12,24,22.50
2013,07,15,12,25,22.60
2013,07,15,12,26,22.60
2013,07,15,12,27,22.70
2013,07,15,12,29,22.70
2013,07,15,12,30,22.70
2013,07,15,12,31,22.70
2013,07,15,12,33,22.70
2013,07,15,12,34,22.70
2013,07,15,12,35,22.70
2013,07,15,12,36,22.70
2013,07,15,12,38,22.70
2013,07,15,12,39,22.70
2013,07,15,12,40,22.70
2013,07,15,12,41,22.70
2013,07,15,12,43,22.80
2013,07,15,12,44,22.90
2013,07,15,12,45,23.00
2013,07,15,12,47,23.00
2013,07,15,12,48,23.10
2013,07,15,12,49,23.10
2013,07,15,12,50,23.20
2013,07,15,12,51,23.20
2013,07,15,12,53,23.20
2013,07,15,12,54,23.30
2013,07,15,12,55,23.30
2013,07,15,12,56,23.30
2013,07,15,12,58,23.30
2013,07,15,12,59,23.30
2013,07,15,13,00,23.30
2013,07,15,13,01,23.30
2013,07,15,13,02,23.30
2013,07,15,13,03,23.30
2013,07,15,13,04,23.50
2013,07,15,13,05,23.60
2013,07,15,13,07,23.70
2013,07,15,13,08,23.80
2013,07,15,13,09,23.80
2013,07,15,13,10,23.80
2013,07,15,13,11,23.80
2013,07,15,13,12,23.70
2013,07,15,13,14,23.70
2013,07,15,13,15,23.80
2013,07,15,13,16,23.80
2013,07,15,13,17,23.80
2013,07,15,13,18,23.80
2013,07,15,13,19,23.90
2013,07,15,13,20,24.00
2013,07,15,13,21,24.10
2013,07,15,13,23,24.20
2013,07,15,13,24,24.30
2013,07,15,13,25,24.40
2013,07,15,13,26,24.40
2013,07,15,13,28,24.40
2013,07,15,13,29,24.40
2013,07,15,13,30,24.30
2013,07,15,13,31,24.30
2013,07,15,13,32,24.30
2013,07,15,13,34,24.30
2013,07,15,13,35,24.40
2013,07,15,13,36,24.40
2013,07,15,13,37,24.40
2013,07,15,13,39,24.40
2013,07,15,13,40,24.60
2013,07,15,13,41,24.60
2013,07,15,13,42,24.60
2013,07,15,13,43,24.60
2013,07,15,13,44,24.60
2013,07,15,13,45,24.60
2013,07,15,13,46,24.60
2013,07,15,13,47,24.40
2013,07,15,13,49,24.40
2013,07,15,13,50,24.40
2013,07,15,13,51,24.50
2013,07,15,13,52,24.50
2013,07,15,13,53,24.60
2013,07,15,13,54,24.70
2013,07,15,13,55,24.80
2013,07,15,13,56,24.90
2013,07,15,13,57,24.90
2013,07,15,13,58,24.90
2013,07,15,13,59,24.90
2013,07,15,14,00,24.90
2013,07,15,14,01,25.00
2013,07,15,14,02,25.10
2013,07,15,14,04,25.00
2013,07,15,14,05,25.00
2013,07,15,14,06,24.90
2013,07,15,14,07,24.90
2013,07,15,14,09,24.90
2013,07,15,14,10,25.00
2013,07,15,14,11,25.00
2013,07,15,14,12,25.00
2013,07,15,14,13,25.00
2013,07,15,14,14,25.10
2013,07,15,14,15,25.10
2013,07,15,14,16,25.10
2013,07,15,14,17,25.10
2013,07,15,14,18,25.10
2013,07,15,14,19,25.10
2013,07,15,14,20,25.20
2013,07,15,14,21,25.20
2013,07,15,14,22,25.20
2013,07,15,14,23,25.20
2013,07,15,14,25,25.20
2013,07,15,14,26,25.20
2013,07,15,14,27,25.20
2013,07,15,14,28,25.20
2013,07,15,14,30,25.20
2013,07,15,14,31,25.20
2013,07,15,14,32,25.10
2013,07,15,14,33,25.10
2013,07,15,14,34,25.10
2013,07,15,14,35,25.10
2013,07,15,14,36,25.10
2013,07,15,14,37,25.10
2013,07,15,14,39,25.20
2013,07,15,14,40,25.30
2013,07,15,14,41,25.40
2013,07,15,14,43,25.40
2013,07,15,14,44,25.40
2013,07,15,14,45,25.30
2013,07,15,14,46,25.30
2013,07,15,14,47,25.40
2013,07,15,14,48,25.40
2013,07,15,14,49,25.50
2013,07,15,14,50,25.60
2013,07,15,14,51,25.60
2013,07,15,14,53,25.60
2013,07,15,14,54,25.70
2013,07,15,14,55,25.60
2013,07,15,14,56,25.60
2013,07,15,14,58,25.60
2013,07,15,14,59,25.60
2013,07,15,15,00,25.60
2013,07,15,15,01,25.60
2013,07,15,15,03,25.60
2013,07,15,15,04,25.60
2013,07,15,15,05,25.60
2013,07,15,15,06,25.50
2013,07,15,15,08,25.50
2013,07,15,15,09,25.50
2013,07,15,15,10,25.50
2013,07,15,15,11,25.50
2013,07,15,15,13,25.50
2013,07,15,15,14,25.60
2013,07,15,15,15,25.60
2013,07,15,15,16,25.50
2013,07,15,15,17,25.60
2013,07,15,15,18,25.60
2013,07,15,15,19,25.60
2013,07,15,15,20,25.60
2013,07,15,15,21,25.50
2013,07,15,15,22,25.50
2013,07,15,15,23,25.50
2013,07,15,15,24,25.50
2013,07,15,15,25,25.40
2013,07,15,15,26,25.40
2013,07,15,15,27,25.40
2013,07,15,15,29,25.40
2013,07,15,15,30,25.40
2013,07,15,15,31,25.40
2013,07,15,15,33,25.30
2013,07,15,15,34,25.30
2013,07,15,15,35,25.30
2013,07,15,15,36,25.40
2013,07,15,15,38,25.50
2013,07,15,15,39,25.60
2013,07,15,15,40,25.70
2013,07,15,15,41,25.80
2013,07,15,15,43,25.80
2013,07,15,15,44,25.90
2013,07,15,15,45,25.90
2013,07,15,15,46,25.90
2013,07,15,15,47,25.90
2013,07,15,15,48,25.90
2013,07,15,15,49,25.90
2013,07,15,15,50,26.00
2013,07,15,15,52,26.10
2013,07,15,15,53,26.10
2013,07,15,15,54,26.10
2013,07,15,15,55,26.10
2013,07,15,15,57,26.10
2013,07,15,15,58,26.20
2013,07,15,15,59,26.20
2013,07,15,16,00,26.30
2013,07,15,16,01,26.40
2013,07,15,16,02,26.40
2013,07,15,16,03,26.40
2013,07,15,16,04,26.40
2013,07,15,16,05,26.40
2013,07,15,16,07,26.40
2013,07,15,16,08,26.50
2013,07,15,16,09,26.60
2013,07,15,16,10,26.60
2013,07,15,16,11,26.50
2013,07,15,16,12,26.40
2013,07,15,16,13,26.30
2013,07,15,16,14,26.20
2013,07,15,16,16,26.20
2013,07,15,16,17,26.10
2013,07,15,16,18,26.20
2013,07,15,16,19,26.20
2013,07,15,16,20,26.30
2013,07,15,16,21,26.30
2013,07,15,16,22,26.30
2013,07,15,16,23,26.30
2013,07,15,16,25,26.30
2013,07,15,16,26,26.30
2013,07,15,16,27,26.30
2013,07,15,16,28,26.30
2013,07,15,16,29,26.30
2013,07,15,16,31,26.40
2013,07,15,16,32,26.30
2013,07,15,16,34,26.30
2013,07,15,16,35,26.30
2013,07,15,16,36,26.30
2013,07,15,16,37,26.40
2013,07,15,16,39,26.40
2013,07,15,16,40,26.40
2013,07,15,16,41,26.30
2013,07,15,16,43,26.20
2013,07,15,16,44,26.20
2013,07,15,16,45,26.10
2013,07,15,16,46,26.10
2013,07,15,16,48,26.00
2013,07,15,16,49,26.00
2013,07,15,16,50,26.10
2013,07,15,16,51,26.10
2013,07,15,16,52,26.10
2013,07,15,16,54,26.10
2013,07,15,16,55,26.10
2013,07,15,16,56,26.20
2013,07,15,16,57,26.20
2013,07,15,16,59,26.30
2013,07,15,17,00,26.30
2013,07,15,17,01,26.30
2013,07,15,17,03,26.30
2013,07,15,17,04,26.40
2013,07,15,17,05,26.40
2013,07,15,17,07,26.40
2013,07,15,17,08,26.40
2013,07,15,17,09,26.40
2013,07,15,17,10,26.40
2013,07,15,17,12,26.40
2013,07,15,17,13,26.40
2013,07,15,17,14,26.40
2013,07,15,17,15,26.40
2013,07,15,17,17,26.50
2013,07,15,17,18,26.50
2013,07,15,17,19,26.50
2013,07,15,17,20,26.40
2013,07,15,17,22,26.40
2013,07,15,17,23,26.40
2013,07,15,17,24,26.40
2013,07,15,17,25,26.50
2013,07,15,17,27,26.50
2013,07,15,17,28,26.60
2013,07,15,17,29,26.60
2013,07,15,17,30,26.60
2013,07,15,17,32,26.60
2013,07,15,17,33,26.70
2013,07,15,17,34,26.70
2013,07,15,17,35,26.80
2013,07,15,17,37,26.70
2013,07,15,17,38,26.80
2013,07,15,17,39,26.80
2013,07,15,17,41,26.80
2013,07,15,17,42,26.80
2013,07,15,17,43,26.80
2013,07,15,17,44,26.80
2013,07,15,17,46,26.70
2013,07,15,17,47,26.70
2013,07,15,17,48,26.70
2013,07,15,17,49,26.60
2013,07,15,17,51,26.60
2013,07,15,17,52,26.60
2013,07,15,17,53,26.60
2013,07,15,17,54,26.60
2013,07,15,17,55,26.60
2013,07,15,17,56,26.60
2013,07,15,17,57,26.60
2013,07,15,17,58,26.70
2013,07,15,17,59,26.70
2013,07,15,18,01,26.90
2013,07,15,18,02,26.90
2013,07,15,18,03,26.90
2013,07,15,18,05,26.90
2013,07,15,18,06,26.90
2013,07,15,18,07,26.90
2013,07,15,18,08,26.90
2013,07,15,18,10,26.90
2013,07,15,18,11,26.90
2013,07,15,18,12,26.80
2013,07,15,18,13,26.70
2013,07,15,18,14,26.70
2013,07,15,18,15,26.70
2013,07,15,18,16,26.60
2013,07,15,18,17,26.60
2013,07,15,18,18,26.60
2013,07,15,18,20,26.50
2013,07,15,18,21,26.40
2013,07,15,18,22,26.40
2013,07,15,18,23,26.50
2013,07,15,18,25,26.60
2013,07,15,18,26,26.60
2013,07,15,18,27,26.60
2013,07,15,18,28,26.60
2013,07,15,18,30,26.60
2013,07,15,18,31,26.60
2013,07,15,18,32,26.70
2013,07,15,18,33,26.70
2013,07,15,18,34,26.70
2013,07,15,18,36,26.80
2013,07,15,18,37,26.90
2013,07,15,18,38,27.00
2013,07,15,18,39,27.10
2013,07,15,18,41,27.10
2013,07,15,18,42,27.00
2013,07,15,18,43,26.90
2013,07,15,18,45,26.80
2013,07,15,18,46,26.80
2013,07,15,18,47,26.80
2013,07,15,18,49,26.80
2013,07,15,18,50,26.90
2013,07,15,18,51,26.90
2013,07,15,18,52,26.90
2013,07,15,18,53,26.90
2013,07,15,18,54,27.00
2013,07,15,18,55,27.10
2013,07,15,18,56,27.10
2013,07,15,18,57,27.10
2013,07,15,18,59,27.10
2013,07,15,19,00,27.20
2013,07,15,19,01,27.20
2013,07,15,19,02,27.10
2013,07,15,19,04,26.90
2013,07,15,19,05,26.70
2013,07,15,19,06,26.50
2013,07,15,19,07,26.30
2013,07,15,19,09,26.20
2013,07,15,19,10,25.90
2013,07,15,19,11,25.90
2013,07,15,19,12,25.80
2013,07,15,19,13,25.80
2013,07,15,19,14,25.70
2013,07,15,19,15,25.70
2013,07,15,19,16,25.60
2013,07,15,19,17,25.40
2013,07,15,19,19,25.30
2013,07,15,19,20,25.20
2013,07,15,19,21,25.20
2013,07,15,19,22,25.10
2013,07,15,19,24,25.10
2013,07,15,19,25,25.10
2013,07,15,19,26,25.00
2013,07,15,19,28,25.00
2013,07,15,19,29,25.00
2013,07,15,19,30,25.00
2013,07,15,19,31,24.90
2013,07,15,19,32,24.90
2013,07,15,19,34,24.90
2013,07,15,19,35,24.90
2013,07,15,19,36,25.00
2013,07,15,19,37,24.90
2013,07,15,19,39,24.90
2013,07,15,19,40,24.90
2013,07,15,19,41,24.80
2013,07,15,19,42,24.80
2013,07,15,19,43,24.80
2013,07,15,19,45,24.70
2013,07,15,19,46,24.70
2013,07,15,19,47,24.70
2013,07,15,19,49,24.70
2013,07,15,19,50,24.70
2013,07,15,19,51,24.70
2013,07,15,19,52,24.70
2013,07,15,19,54,24.70
2013,07,15,19,55,24.70
2013,07,15,19,56,24.70
2013,07,15,19,57,24.70
2013,07,15,19,59,24.70
2013,07,15,20,00,24.70
2013,07,15,20,01,24.70
2013,07,15,20,02,24.60
2013,07,15,20,04,24.60
2013,07,15,20,05,24.60
2013,07,15,20,06,24.50
2013,07,15,20,07,24.40
2013,07,15,20,09,24.40
2013,07,15,20,10,24.40
2013,07,15,20,11,24.40
2013,07,15,20,13,24.40
2013,07,15,20,14,24.40
2013,07,15,20,15,24.40
2013,07,15,20,16,24.50
2013,07,15,20,17,24.50
2013,07,15,20,19,24.50
2013,07,15,20,20,24.50
2013,07,15,20,21,24.50
2013,07,15,20,23,24.50
2013,07,15,20,24,24.60
2013,07,15,20,25,24.60
2013,07,15,20,26,24.50
2013,07,15,20,28,24.40
2013,07,15,20,29,24.40
2013,07,15,20,30,24.30
2013,07,15,20,31,24.30
2013,07,15,20,32,24.20
2013,07,15,20,33,24.20
2013,07,15,20,34,24.20
2013,07,15,20,35,24.20
2013,07,15,20,36,24.20
2013,07,15,20,37,24.20
2013,07,15,20,38,24.10
2013,07,15,20,39,24.10
2013,07,15,20,40,24.10
2013,07,15,20,41,24.10
2013,07,15,20,42,24.10
2013,07,15,20,43,24.00